Torna al catalogo

STARLINK-38049

AttivoComunicazioniSSO
NORAD 69751·PAYLOAD·🇺🇸 United States

Lanciato Jul 2, 2026 da Vandenberg Space Force Base

Loading…

Prossimi Passaggi (prossime 24 ore)

TLE

AggiornatoSource: CelesTrak SupGP

Epoca: Sep 14, 2026, 23:15 UTC

1 69751C 26150N   26257.96923611  .00083262  00000+0  25851-2 0  2571
2 69751  97.2847  96.9561 0001830  92.3946  30.8728 15.33390481    14

Traccia STARLINK-38049 in tempo reale con AllMySat

Download on the App Store